STARLINK-33831, 63595

Orbit data source: Space-Track

STARLINK-33831, 63595 is a payload satellite owned by SpaceX/Seattle (US) in LEO that was launched on Mon, 14 Apr 2025 UTC via an FALCON 9 launch vehicle from the Air Force Eastern Test Range (AFETR). Payload-class satellites include a variety of spacecraft equipped with specific instruments for various scientific and technological missions. These include communications satellites like Starlink; space stations such as the ISS; scientific satellites like the Hubble; Earth observation satellites from companies like Planet Labs, Umbra, and HawkEye 360; GPS; miniature CubeSats for education and research; and military/defense satellites.

Loading next visibility...
Identifier
63595, 2025-076AC
Orbit
LEO
Country
Flag of USUS
Related business
Manufacturer
SpaceX/Seattle
Mission
Operational Commercial Communications
Bus & Motor
STARLINK V2MO, Unknown motor
Mass
575 kg wet, ~530 kg dry
Launch date (UTC)
2025-04-14 (5 months ago)
Launch vehicle
FALCON 9
Launch site
Air Force Eastern Test Range (AFETR)
Object type
Payload
Rocket body
Debris
Shape & HBR
Box + 1 Pan, 14.5 m
Radar Cross Section
41.120 m², Large (>1 m²)

Expand to show TLE details & history
Last TLE update: 22 hours ago

TLE from 22 hours ago
0 STARLINK-33831
1 63595U 25076AC  25261.21339258  .00023982  00000-0  87690-3 0  9994
2 63595  43.0026 215.5750 0000961 291.5807  68.4942 15.27628764 25455
Epoch: 2025-09-18T05:07Z
TLE epoch observation values (Epoch: 2025-09-18T05:07:17.118Z)
Latitude
-0.00005°
Longitude
141.3754°
Altitude
482.437 km
Speed
7.626 km/s
True Right ascension
14h 22m 17s
True Declination
0° 00' 00"
Sunlit
Object was in daylight at epoch
Visualization orbit readout
Latitude
Unknown
Longitude
Unknown
Altitude
Unknown
Speed
Unknown
Apparent Right ascension
Unknown
Apparent Declination
Unknown
Sunlit
N/A
Visualization observer readout
Local Sidereal Time
20:04:07
Azimuth
Unknown
Elevation
Unknown
Doppler factor
Unknown
Orbital elements
Apogee altitude
485.507 km
Perigee altitude
484.188 km
Semi-major axis
6,862.985 km
Eccentricity
0.0001
Inclination
43.0026°
RAAN
215.575°
Arg. of periapsis
291.5807°
True anomaly
68.50445°
Mean anomaly
68.4942°
Eccentric anomaly
68.49932°
Mean motion
3.81745 °/min
Orbital period
94.3 mins
BSTAR
0.0008769
Loading maneuver chart data...
Computing Atmospheric mass density...
Loading historical data...
Loading historical data...
Loading historical data...
Loading historical data...
Loading historical data...
Loading historical data...
Loading historical data...

Documentation

Showing up to 5 results
|